Location: Pasarilla del Rebollar
(40.6790°N, 5.0062°W)
Time: 12:09:48
(UTC+00:00)

Cosmos 1898 Rocket - Pass Details

Date: 22 April 2026
Orbit: 750 x 778 km, 74.0° (Epoch: 16 May)

Event Time Altitude Azimuth Distance (km) Brightness Sun altitude
Rises 04:05:05 0° 339° (NNW) 3,206 6.9 -15.7°
Reaches altitude 10° 04:07:27 10° 339° (NNW) 2,278 6.1 -15.3°
Maximum altitude 04:12:37 82° 252° (WSW) 763 3.4 -14.5°
Drops below altitude 10° 04:17:45 10° 166° (SSE) 2,270 5.8 -13.6°
Sets 04:20:07 0° 165° (SSE) 3,193 6.6 -13.2°
